Showing default

GONETS D1 3, 23789

Orbit data source: Space-Track

GONETS D1 3, 23789 is a payload satellite owned by Gonets (CIS) in LEO that was launched on Mon, 19 Feb 1996 UTC via a TSIKLON-3 launch vehicle from the Plesetsk Missile And Space Complex (PKMTR). Payload-class satellites include a variety of spacecraft equipped with specific instruments for various scientific and technological missions. These include communications satellites like Starlink; space stations such as the ISS; scientific satellites like the Hubble; Earth observation satellites from companies like Planet Labs, Umbra, and HawkEye 360; GPS; miniature CubeSats for education and research; and military/defense satellites.

Loading next visibility...
Identifier
23789, 1996-009C
Orbit
LEO
Country
Flag of CISCIS
Related business
Manufacturer
NPO PM
Mission
Non-operational Civil Communications
Bus & Motor
STRELA-3, Unknown motor
Mass
225 kg wet, 225 kg dry
Launch date (UTC)
1996-02-19 (31 years ago)
Launch vehicle
TSIKLON-3
Launch site
Plesetsk Missile And Space Complex (PKMTR)
Object type
Payload
Rocket body
Debris
Shape & HBR
Cyl + 1 Ant, 3.5 m
Radar Cross Section
1.798 m², Large (>1 m²)

Expand to show TLE details & history
Last TLE update: 15 hours ago

TLE from 15 hours ago
0 GONETS D1 3
1 23789U 96009C   26265.91038288  .00000041  00000-0  16838-3 0  9997
2 23789  82.5737 257.4402 0004894 190.4104 169.6887 12.62688052409986
Epoch: 2026-09-22T21:50Z
TLE epoch observation values (Epoch: 2026-09-22T21:50:57.080Z)
Latitude
-0.00001°
Longitude
-72.06672°
Altitude
1,418.351 km
Speed
7.15 km/s
True Right ascension
17h 09m 45s
True Declination
0° 00' 00"
Sunlit
Object was in daylight at epoch
Visualization orbit readout
Latitude
Unknown
Longitude
Unknown
Altitude
Unknown
Speed
Unknown
Apparent Right ascension
Unknown
Apparent Declination
Unknown
Sunlit
N/A
Visualization observer readout
Local Sidereal Time
06:09:07
Azimuth
Unknown
Elevation
Unknown
Doppler factor
Unknown
Orbital elements
Apogee altitude
1,413 km
Perigee altitude
1,405.378 km
Semi-major axis
7,787.326 km
Eccentricity
0.00049
Inclination
82.5737°
RAAN
257.4402°
Arg. of periapsis
190.4104°
True anomaly
169.69873°
Mean anomaly
169.6887°
Eccentric anomaly
169.69372°
Mean motion
3.15835 °/min
Orbital period
113.98 mins
BSTAR
0.00016838
Loading maneuver chart data...
Computing Atmospheric mass density...
Loading historical data...
Loading historical data...
Loading historical data...
Loading historical data...
Loading historical data...
Loading historical data...
Loading historical data...

Documentation

Showing up to 5 results
|